This demonstration page uses our WeatherBlox Daily Observations layout. Learn more.

39.29038, -76.61219

Hourly Observations for January 27, 2019

Temp ( °F °C ) Dew Point ( °F °C ) Humidity (%) Winds ( mph kmh ) Pressure ( in mb ) Visibility ( mi km ) Precip ( " mm )
12:54 am 00:54 undefined 31 -0.6 22 -5.6 69 69 undefined N/A 30.15 1021 N/A 0 0
1:54 am 01:54 undefined 31 -0.6 22 -5.6 69 69 undefined N/A 30.15 1021 N/A 0 0
2:54 am 02:54 undefined 30 -1.1 22 -5.6 72 72 undefined N/A 30.12 1020 N/A 0 0
3:54 am 03:54 undefined 30 -1.1 23 -5 75 75 undefined N/A 30.12 1020 N/A 0 0
4:54 am 04:54 undefined 31 -0.6 24 -4.4 76 76 undefined N/A 30.12 1020 N/A 0 0
5:54 am 05:54 undefined 31 -0.6 25 -3.9 79 79 undefined N/A 30.09 1019 N/A 0 0
6:54 am 06:54 undefined 31 -0.6 25 -3.9 79 79 undefined N/A 30.06 1018 N/A 0 0
7:54 am 07:54 undefined 31 -0.6 26 -3.3 82 82 undefined N/A 30.06 1018 N/A 0 0
8:54 am 08:54 undefined 34 1.1 25 -3.9 70 70 undefined N/A 30.09 1019 N/A 0 0
9:54 am 09:54 undefined 39 3.9 22 -5.6 50 50 undefined N/A 30.06 1018 N/A 0 0
10:54 am 10:54 undefined 42 5.6 22 -5.6 45 45 undefined N/A 30.03 1017 N/A 0 0
11:54 am 11:54 undefined 44 6.7 21 -6.1 40 40 undefined N/A 30.03 1017 N/A 0 0
12:54 pm 12:54 undefined 45 7.2 21 -6.1 39 39 undefined N/A 30 1016 N/A 0 0
1:54 pm 13:54 undefined 46 7.8 22 -5.6 38 38 undefined N/A 29.94 1014 N/A 0 0
2:54 pm 14:54 undefined 48 8.9 23 -5 37 37 undefined N/A 29.94 1014 N/A 0 0
3:54 pm 15:54 undefined 48 8.9 24 -4.4 39 39 undefined N/A 29.94 1014 N/A 0 0
4:54 pm 16:54 undefined 47 8.3 24 -4.4 41 41 undefined N/A 29.94 1014 N/A 0 0
5:54 pm 17:54 undefined 45 7.2 24 -4.4 44 44 undefined N/A 29.94 1014 N/A 0 0
6:54 pm 18:54 undefined 45 7.2 24 -4.4 44 44 undefined N/A 29.97 1015 N/A 0 0
7:54 pm 19:54 undefined 44 6.7 25 -3.9 47 47 undefined N/A 29.97 1015 N/A 0 0
8:54 pm 20:54 undefined 44 6.7 25 -3.9 47 47 undefined N/A 29.97 1015 N/A 0 0
9:54 pm 21:54 undefined 44 6.7 24 -4.4 45 45 undefined N/A 30 1016 N/A 0 0
10:54 pm 22:54 undefined 42 5.6 19 -7.2 40 40 undefined N/A 29.97 1015 N/A 0 0
11:54 pm 23:54 undefined 40 4.4 22 -5.6 49 49 undefined N/A 30 1016 N/A 0 0

Powered by AerisWeather